Location: Downe
(51.3167°N, 0.0500°E)
Time: 21:48:25
(UTC+00:00)

Cosmos 1933 - Pass Details

Date: 17 November 2019
Orbit: 546 x 565 km, 82.5° (Epoch: 11 December)

Event Time Altitude Azimuth Distance (km) Brightness Sun altitude
Rises 06:30:21 0° 340° (NNW) 2,738 6.5 -7.8°
Reaches altitude 10° 06:32:46 10° 328° (NNW) 1,836 5.5 -7.5°
Maximum altitude 06:36:09 26° 271° (W) 1,094 4.3 -7.0°
Drops below altitude 10° 06:39:30 10° 214° (SSW) 1,817 5.9 -6.5°
Sets 06:41:53 0° 201° (SSW) 2,704 6.9 -6.1°
